This is the latest recevied weather packets stored in our database for station/object N2WH. If no packets are shown the sender has not sent any weather packets the latest 10 day(s).
| Time | Temp. | Humidity | Pressure | Rain* | Wind** | Luminosity | Snow |
|---|---|---|---|---|---|---|---|
| 1778176372 | 17.22° C | 42% | 1010.2 hPa | 0 mm | - | 688 W/m² | - |
| 1778176069 | 17.78° C | 40% | 1010.1 hPa | 0 mm | - | 702 W/m² | - |
| 1778175767 | 17.78° C | 39% | 1010.3 hPa | 0 mm | - | 688 W/m² | - |
| 1778175465 | 16.67° C | 39% | 1010.2 hPa | 0 mm | - | 713 W/m² | - |
| 1778175162 | 16.67° C | 40% | 1010.5 hPa | 0 mm | - | 714 W/m² | - |
| 1778174857 | 17.78° C | 40% | 1010.7 hPa | 0 mm | - | 694 W/m² | - |
| 1778174555 | 17.22° C | 36% | 1010.5 hPa | 0 mm | - | 695 W/m² | - |
| 1778174255 | 16.67° C | 41% | 1010.8 hPa | 0 mm | - | 664 W/m² | - |
| 1778173953 | 16.67° C | 38% | 1011 hPa | 0 mm | - | 679 W/m² | - |
| 1778173649 | 17.22° C | 35% | 1010.9 hPa | 0 mm | - | 711 W/m² | - |
| 1778173346 | 16.67° C | 37% | 1010.6 hPa | 0 mm | - | 730 W/m² | - |
| 1778173042 | 17.22° C | 40% | 1011 hPa | 0 mm | - | 725 W/m² | - |
| 1778172738 | 16.67° C | 42% | 1010.8 hPa | 0 mm | - | 720 W/m² | - |
| 1778172434 | 16.11° C | 39% | 1010.9 hPa | 0 mm | - | 708 W/m² | - |
| 1778172132 | 16.67° C | 34% | 1011.2 hPa | 0 mm | - | 701 W/m² | - |
| 1778171829 | 16.11° C | 40% | 1011.2 hPa | 0 mm | - | 720 W/m² | - |
| 1778171527 | 16.67° C | 38% | 1011.2 hPa | 0 mm | - | 727 W/m² | - |
| 1778171222 | 16.67° C | 44% | 1011.6 hPa | 0 mm | - | 729 W/m² | - |
| 1778170918 | 16.67° C | 41% | 1011.3 hPa | 0 mm | - | 745 W/m² | - |
| 1778170615 | 15.56° C | 41% | 1011.2 hPa | 0 mm | - | 727 W/m² | - |
| 1778170311 | 16.11° C | 39% | 1011.4 hPa | 0 mm | - | 746 W/m² | - |
| 1778170008 | 16.67° C | 41% | 1011.5 hPa | 0 mm | - | 752 W/m² | - |
| 1778169704 | 16.11° C | 40% | 1011.5 hPa | 0 mm | - | 773 W/m² | - |
| 1778169400 | 15.56° C | 45% | 1011.5 hPa | 0 mm | - | 775 W/m² | - |
| 1778169097 | 15.56° C | 48% | 1011.6 hPa | 0 mm | - | 772 W/m² | - |
* Rain latest hour (hover to see other rain measurements)
** Current wind speed in m/s (hover to see current wind gust speed)